Weather History for KGKJ - January, 2014

Change the Weather History Date:

Monday, January 6, 2014

  Actual Average Record
Temperature  
Mean Temperature 17 °F -  
Max Temperature 45 °F 32 °F 57 °F (2007)
Min Temperature -11 °F 14 °F -11 °F (2014)
Degree Days  
Heating Degree Days 48    
Moisture  
Dew Point 6 °F    
Average Humidity 76    
Maximum Humidity 93    
Minimum Humidity 55    
Precipitation  
Precipitation 0.13 in - - ()
Sea Level Pressure  
Sea Level Pressure 29.72 in    
Wind  
Wind Speed 15 mph (WSW)    
Max Wind Speed 24 mph    
Max Gust Speed 37 mph    
Visibility 3 miles    
Events Fog , Rain , Snow    
Averages and records for this station are not official NWS values.
T = Trace of Precipitation, MM = Missing Value Source: NWS Daily Summary

Daily Weather History Graph

Daily Weather History Graph

Search for Another Location

Airport or City:

Trip Planner

Search our weather history database for the weather conditions in past years. The results will help you decide how hot, cold, wet, or windy it might be!

Date:

Astronomy

Jan. 06, 2014 Rise Set
Actual Time 7:47 AM EST 5:06 PM EST
Civil Twilight 7:16 AM EST 5:37 PM EST
Nautical Twilight 6:41 AM EST 6:11 PM EST
Astronomical Twilight 6:08 AM EST 6:45 PM EST
Moon 10:57 AM EST (1/6) 11:43 PM EST (1/6)
Length of Visible Light 10h 20m
Length of Day
9h 18m
Waxing Crescent, 34% of the Moon is Illuminated
Jan 6
Waxing Crescent
Jan 7
First Quarter
Jan 15
Full
Jan 24
Last Quarter
Jan 30
New

Hourly Weather History & Observations

Time (EST) Temp. Windchill Dew Point Humidity Pressure Visibility Wind Dir Wind Speed Gust Speed Precip Events Conditions
12:14 AM 44.6 °F 41.4 °F 42.8 °F 93% 29.29 in 10.0 mi Variable 5.8 mph - N/A   Overcast
12:44 AM 44.6 °F 39.2 °F 42.8 °F 93% 29.27 in 7.0 mi South 10.4 mph 17.3 mph 0.01 in Rain Light Rain
12:53 AM 45.0 °F 39.7 °F 42.1 °F 90% 29.28 in 8.0 mi South 10.4 mph 19.6 mph 0.01 in Rain Light Rain
1:17 AM 44.6 °F 38.4 °F 42.8 °F 93% 29.25 in 7.0 mi South 12.7 mph 21.9 mph 0.02 in Rain Light Rain
1:53 AM 44.1 °F 37.1 °F 39.0 °F 82% 29.32 in 8.0 mi SW 15.0 mph 31.1 mph 0.08 in Rain Light Rain
2:39 AM 41.0 °F 33.1 °F 35.6 °F 81% 29.29 in 10.0 mi SW 15.0 mph 29.9 mph 0.02 in Rain Light Rain
2:53 AM 39.0 °F 29.0 °F 36.0 °F 89% 29.36 in 10.0 mi WSW 20.7 mph 32.2 mph 0.02 in Rain Light Rain
3:05 AM 35.6 °F 25.2 °F 33.8 °F 93% 29.35 in 10.0 mi WSW 18.4 mph 33.4 mph 0.01 in Rain Light Rain
3:14 AM 33.8 °F 21.9 °F 30.2 °F 87% 29.36 in 1.5 mi West 21.9 mph 32.2 mph 0.02 in Snow Light Snow
3:42 AM 30.2 °F 18.5 °F 26.6 °F 86% 29.41 in 3.0 mi West 17.3 mph 32.2 mph 0.02 in Snow Light Snow
3:53 AM 28.9 °F 15.4 °F 26.1 °F 89% 29.47 in 6.0 mi West 21.9 mph 35.7 mph 0.02 in   Overcast
4:53 AM 25.0 °F 11.3 °F 23.0 °F 92% 29.53 in 10.0 mi West 18.4 mph 29.9 mph 0.00 in   Overcast
5:38 AM 24.8 °F 13.4 °F 19.4 °F 80% 29.57 in 6.0 mi West 12.7 mph 31.1 mph 0.00 in Snow Light Snow
5:53 AM 23.0 °F 8.7 °F 18.0 °F 81% 29.63 in 2.5 mi West 18.4 mph 28.8 mph 0.00 in Snow Light Snow
6:00 AM 21.2 °F 6.0 °F 17.6 °F 86% 29.59 in 3.0 mi West 19.6 mph 24.2 mph 0.00 in Snow Light Snow
6:14 AM 21.2 °F 5.6 °F 17.6 °F 86% 29.61 in 2.0 mi West 20.7 mph 29.9 mph 0.00 in Snow Light Snow
6:18 AM 21.2 °F 6.4 °F 17.6 °F 86% 29.62 in 1.8 mi West 18.4 mph 29.9 mph 0.00 in Snow Light Snow
6:27 AM 21.2 °F 7.8 °F 15.8 °F 80% 29.62 in 2.0 mi West 15.0 mph 27.6 mph 0.00 in Snow Light Snow
6:36 AM 19.4 °F 6.0 °F 15.8 °F 86% 29.63 in 1.8 mi West 13.8 mph 24.2 mph 0.00 in Snow Light Snow
6:53 AM 19.9 °F 5.7 °F 16.0 °F 85% 29.68 in 2.0 mi West 16.1 mph 23.0 mph 0.00 in Snow Light Snow
7:04 AM 19.4 °F 4.5 °F 15.8 °F 86% 29.65 in 3.0 mi West 17.3 mph 26.5 mph 0.00 in Snow Light Snow
7:14 AM 19.4 °F 4.5 °F 14.0 °F 80% 29.65 in 3.0 mi West 17.3 mph 27.6 mph 0.00 in Snow Light Snow
7:32 AM 19.4 °F 7.9 °F 15.8 °F 86% 29.67 in 2.0 mi West 10.4 mph - 0.00 in Snow Light Snow
7:48 AM 19.4 °F 5.5 °F 12.2 °F 74% 29.68 in 4.0 mi West 15.0 mph 28.8 mph 0.00 in Snow Light Snow
7:53 AM 19.0 °F 4.0 °F 12.9 °F 77% 29.73 in 4.0 mi West 17.3 mph 28.8 mph 0.00 in Snow Light Snow
8:14 AM 17.6 °F 0.5 °F 12.2 °F 79% 29.69 in 2.5 mi West 21.9 mph 28.8 mph 0.00 in Snow Light Snow
8:21 AM 17.6 °F 1.7 °F 12.2 °F 79% 29.69 in 2.5 mi West 18.4 mph 28.8 mph 0.00 in Snow Light Snow
8:53 AM 18.0 °F 1.7 °F 12.9 °F 81% 29.74 in 2.5 mi WSW 19.6 mph 25.3 mph 0.00 in Snow Light Snow
9:04 AM 17.6 °F 0.9 °F 12.2 °F 79% 29.71 in 1.8 mi WSW 20.7 mph 25.3 mph 0.00 in Snow Light Snow
9:43 AM 17.6 °F 3.2 °F 12.2 °F 79% 29.72 in 2.0 mi West 15.0 mph 19.6 mph 0.00 in Snow Light Snow
9:49 AM 17.6 °F 2.7 °F 12.2 °F 79% 29.72 in 1.5 mi West 16.1 mph 20.7 mph 0.00 in Snow Light Snow
9:53 AM 18.0 °F 3.1 °F 12.9 °F 81% 29.77 in 1.2 mi West 16.1 mph - 0.00 in Snow Light Snow
10:05 AM 17.6 °F 2.2 °F 12.2 °F 79% 29.73 in 1.0 mi WSW 17.3 mph 23.0 mph 0.00 in Snow Light Snow
10:39 AM 17.6 °F 3.7 °F 12.2 °F 79% 29.73 in 1.0 mi WSW 13.8 mph 19.6 mph 0.00 in Snow Light Snow
10:42 AM 17.6 °F 2.7 °F 12.2 °F 79% 29.73 in 0.8 mi WSW 16.1 mph 24.2 mph 0.00 in Snow Light Snow
10:53 AM 17.1 °F 2.5 °F 12.0 °F 81% 29.78 in 0.5 mi West 15.0 mph - 0.00 in Snow Snow
11:04 AM 15.8 °F 2.7 °F 12.2 °F 86% 29.73 in 0.2 mi West 11.5 mph - 0.00 in Fog , Snow Heavy Snow
11:12 AM 15.8 °F 1.4 °F 12.2 °F 86% 29.73 in 0.5 mi West 13.8 mph - 0.00 in Fog , Snow Snow
11:20 AM 15.8 °F -0.2 °F 12.2 °F 86% 29.73 in 0.5 mi WSW 17.3 mph 21.9 mph 0.00 in Fog , Snow Snow
11:40 AM 15.8 °F -0.2 °F 10.4 °F 79% 29.73 in 0.5 mi West 17.3 mph - 0.00 in Snow Snow
11:53 AM 14.0 °F 0.5 °F 10.0 °F 84% 29.77 in 0.5 mi West 11.5 mph - 0.00 in Fog , Snow Snow
12:12 PM 12.2 °F -3.7 °F 6.8 °F 79% 29.72 in 2.0 mi West 15.0 mph 23.0 mph 0.00 in Snow Light Snow
12:19 PM 12.2 °F -4.8 °F 6.8 °F 79% 29.73 in 2.5 mi WSW 17.3 mph 24.2 mph 0.00 in Snow Light Snow
12:53 PM 10.9 °F -4.7 °F 3.9 °F 73% 29.78 in 2.0 mi West 13.8 mph 21.9 mph 0.00 in Snow Light Snow
1:04 PM 10.4 °F -4.1 °F 5.0 °F 79% 29.73 in 1.0 mi WSW 11.5 mph - 0.00 in Snow Light Snow
1:22 PM 8.6 °F -8.9 °F 1.4 °F 73% 29.74 in 3.0 mi WSW 16.1 mph 24.2 mph 0.00 in Snow Light Snow
1:53 PM 7.0 °F -12.1 °F -0.0 °F 73% 29.80 in 2.5 mi WSW 18.4 mph 26.5 mph 0.00 in Snow Light Snow
2:07 PM 6.8 °F -12.4 °F -2.2 °F 67% 29.75 in 1.8 mi West 18.4 mph 28.8 mph 0.00 in Snow Light Snow
2:15 PM 6.8 °F -13.4 °F -2.2 °F 67% 29.75 in 2.5 mi West 20.7 mph 27.6 mph 0.00 in Snow Light Snow
2:30 PM 5.0 °F -15.2 °F -4.0 °F 66% 29.76 in 4.0 mi West 19.6 mph 26.5 mph 0.00 in   Haze
2:42 PM 5.0 °F -11.6 °F -2.2 °F 72% 29.76 in 6.0 mi WSW 12.7 mph 23.0 mph 0.00 in Snow Light Snow
2:51 PM 6.8 °F -13.8 °F -2.2 °F 67% 29.76 in 1.8 mi WSW 21.9 mph 33.4 mph 0.00 in Snow Light Snow
2:53 PM 6.1 °F -15.2 °F -4.0 °F 63% 29.82 in 1.2 mi WSW 23.0 mph 35.7 mph 0.00 in Snow Light Snow
3:12 PM 3.2 °F -17.1 °F -9.4 °F 56% 29.78 in 3.0 mi WSW 18.4 mph 29.9 mph 0.00 in   Mostly Cloudy
3:22 PM 1.4 °F -21.9 °F -7.6 °F 66% 29.79 in 2.0 mi WSW 24.2 mph 34.5 mph 0.00 in Snow Light Snow
3:38 PM 1.4 °F -19.9 °F -9.4 °F 61% 29.81 in 3.0 mi WSW 19.6 mph 31.1 mph 0.00 in   Mostly Cloudy
3:53 PM 1.0 °F -19.9 °F -11.9 °F 55% 29.90 in 2.0 mi SW 18.4 mph 33.4 mph 0.00 in   Overcast
4:01 PM -0.4 °F -21.7 °F -11.2 °F 60% 29.83 in 1.2 mi WSW 18.4 mph 31.1 mph 0.00 in   Overcast
4:15 PM -0.4 °F -19.9 °F -11.2 °F 60% 29.83 in 3.0 mi WSW 15.0 mph 27.6 mph 0.00 in Snow Light Snow
4:25 PM -0.4 °F -21.2 °F -11.2 °F 60% 29.84 in 1.8 mi WSW 17.3 mph 27.6 mph 0.00 in   Mostly Cloudy
4:42 PM -0.4 °F -21.7 °F -13.0 °F 55% 29.84 in 3.0 mi WSW 18.4 mph 25.3 mph 0.00 in   Haze
4:48 PM -2.2 °F -24.7 °F -11.2 °F 66% 29.84 in 2.5 mi WSW 19.6 mph 32.2 mph 0.00 in   Haze
4:53 PM -2.0 °F -24.4 °F -11.9 °F 63% 29.93 in 1.2 mi WSW 19.6 mph 33.4 mph 0.00 in   Overcast
5:01 PM -2.2 °F -22.2 °F -11.2 °F 66% 29.85 in 3.0 mi WSW 15.0 mph 27.6 mph 0.00 in   Haze
5:53 PM -4.0 °F -24.5 °F -13.0 °F 65% 29.96 in 5.0 mi WSW 15.0 mph 27.6 mph 0.00 in   Overcast
6:21 PM -4.0 °F -23.7 °F -11.2 °F 71% 29.89 in 1.8 mi WSW 13.8 mph 23.0 mph 0.00 in Snow Light Snow
6:34 PM -5.8 °F -23.4 °F -11.2 °F 77% 29.90 in 3.0 mi WSW 10.4 mph 25.3 mph 0.00 in   Haze
6:53 PM -6.0 °F -29.6 °F -15.0 °F 65% 30.00 in 5.0 mi WSW 19.6 mph 28.8 mph 0.00 in   Haze
7:53 PM -7.1 °F -29.8 °F -16.1 °F 65% 30.04 in 4.0 mi WSW 17.3 mph 28.8 mph 0.00 in   Overcast
8:17 PM -7.6 °F -31.1 °F -14.8 °F 71% 29.95 in 2.5 mi WSW 18.4 mph 26.5 mph 0.00 in   Haze
8:46 PM -7.6 °F -31.7 °F -16.6 °F 65% 29.96 in 5.0 mi WSW 19.6 mph 26.5 mph 0.00 in   Overcast
8:53 PM -9.0 °F -33.6 °F -17.0 °F 68% 30.06 in 5.0 mi WSW 19.6 mph 29.9 mph 0.00 in   Overcast
9:25 PM -9.4 °F -31.4 °F -16.6 °F 71% 29.97 in 2.5 mi WSW 15.0 mph 26.5 mph 0.00 in   Overcast
9:32 PM -9.4 °F -32.1 °F -18.4 °F 65% 29.97 in 4.0 mi WSW 16.1 mph 25.3 mph 0.00 in   Overcast
9:53 PM -9.9 °F -32.1 °F -18.9 °F 65% 30.08 in 3.0 mi WSW 15.0 mph 36.8 mph 0.00 in   Overcast
10:53 PM -11.0 °F -33.5 °F -20.0 °F 64% 30.09 in 7.0 mi WSW 15.0 mph 26.5 mph 0.00 in   Overcast
11:53 PM -11.9 °F -36.8 °F -20.9 °F 64% 30.11 in 8.0 mi WSW 18.4 mph 27.6 mph N/A   Overcast